Location: ????????
(54.6123°N, 39.2099°E)
Time: 11:57:23
(UTC+00:00)

Cosmos 1908 - Pass Details

Date: 19 May 2025
Orbit: 405 x 414 km, 82.5° (Epoch: 13 June)

Event Time Altitude Azimuth Distance (km) Brightness Sun altitude
Rises 19:45:16 0° 355° (N) 2,397 8.1 -12.7°
Reaches altitude 10° 19:47:29 10° 7° (N) 1,523 6.6 -12.9°
Maximum altitude 19:50:27 30° 70° (ENE) 795 4.1 -13.0°
Enters shadow 19:52:13 18° 120° (ESE) 1,104 4.4 -13.1°
